TimeEDT,TemperatureF,Dew PointF,Humidity,Sea Level PressureIn,VisibilityMPH,Wind Direction,Wind SpeedMPH,Gust SpeedMPH,PrecipitationIn,Events,Conditions,WindDirDegrees,DateUTC
12:15 AM,73.4,73.4,100,30.05,10.0,East,3.5,-,N/A,Rain,Light Rain,80,2013-08-17 04:15:00
12:35 AM,73.4,73.4,100,30.05,10.0,Calm,Calm,-,N/A,,Light Drizzle,0,2013-08-17 04:35:00
12:55 AM,73.4,73.4,100,30.05,10.0,SSE,4.6,-,N/A,,Overcast,150,2013-08-17 04:55:00
1:15 AM,73.4,73.4,100,30.05,10.0,SSE,3.5,-,N/A,,Overcast,150,2013-08-17 05:15:00
1:35 AM,73.4,73.4,100,30.05,10.0,Calm,Calm,-,N/A,,Mostly Cloudy,0,2013-08-17 05:35:00
1:55 AM,73.4,73.4,100,30.04,10.0,Calm,Calm,-,N/A,,Light Drizzle,0,2013-08-17 05:55:00
2:15 AM,73.4,73.4,100,30.04,10.0,Calm,Calm,-,N/A,,Overcast,0,2013-08-17 06:15:00
2:35 AM,73.4,73.4,100,30.04,10.0,Calm,Calm,-,N/A,,Overcast,0,2013-08-17 06:35:00
2:55 AM,73.4,73.4,100,30.04,10.0,Calm,Calm,-,N/A,Rain,Light Rain,0,2013-08-17 06:55:00
3:15 AM,73.4,73.4,100,30.04,10.0,Calm,Calm,-,N/A,,Overcast,0,2013-08-17 07:15:00
3:35 AM,73.4,73.4,100,30.03,10.0,Calm,Calm,-,N/A,,Overcast,0,2013-08-17 07:35:00
3:55 AM,73.4,73.4,100,30.04,10.0,South,3.5,-,N/A,,Overcast,170,2013-08-17 07:55:00
4:15 AM,73.4,73.4,100,30.04,10.0,South,3.5,-,N/A,,Overcast,170,2013-08-17 08:15:00
4:35 AM,73.4,73.4,100,30.03,10.0,Calm,Calm,-,N/A,,Overcast,0,2013-08-17 08:35:00
4:55 AM,73.4,73.4,100,30.03,10.0,South,3.5,-,N/A,,Overcast,170,2013-08-17 08:55:00
5:15 AM,73.4,73.4,100,30.03,10.0,Calm,Calm,-,N/A,Rain,Rain,0,2013-08-17 09:15:00
5:35 AM,73.4,73.4,100,30.03,10.0,SSE,3.5,-,N/A,,Overcast,160,2013-08-17 09:35:00
5:55 AM,73.4,73.4,100,30.04,10.0,SSE,3.5,-,N/A,,Overcast,160,2013-08-17 09:55:00
6:15 AM,73.4,73.4,100,30.05,10.0,Calm,Calm,-,N/A,,Overcast,0,2013-08-17 10:15:00
6:35 AM,73.4,73.4,100,30.05,10.0,Calm,Calm,-,N/A,,Mostly Cloudy,0,2013-08-17 10:35:00
6:55 AM,73.4,73.4,100,30.06,10.0,Calm,Calm,-,N/A,,Scattered Clouds,0,2013-08-17 10:55:00
7:15 AM,73.4,73.4,100,30.08,10.0,Calm,Calm,-,N/A,,Mostly Cloudy,0,2013-08-17 11:15:00
7:35 AM,73.4,73.4,100,30.07,10.0,Calm,Calm,-,N/A,,Scattered Clouds,0,2013-08-17 11:35:00
7:55 AM,73.4,73.4,100,30.07,10.0,Calm,Calm,-,N/A,,Clear,0,2013-08-17 11:55:00
8:15 AM,73.4,73.4,100,30.08,10.0,Calm,Calm,-,N/A,Rain,Light Rain,0,2013-08-17 12:15:00
8:35 AM,73.4,73.4,100,30.09,5.0,Calm,Calm,-,N/A,Rain,Light Rain,0,2013-08-17 12:35:00
8:55 AM,73.4,73.4,100,30.10,5.0,SW,3.5,-,N/A,Rain,Rain,220,2013-08-17 12:55:00
9:15 AM,73.4,73.4,100,30.10,10.0,Calm,Calm,-,N/A,Rain,Light Rain,0,2013-08-17 13:15:00
9:35 AM,73.4,73.4,100,30.09,7.0,Calm,Calm,-,N/A,Rain,Rain,0,2013-08-17 13:35:00
9:55 AM,73.4,73.4,100,30.08,7.0,Calm,Calm,-,N/A,Rain,Light Rain,0,2013-08-17 13:55:00
10:15 AM,75.2,75.2,100,30.08,10.0,Calm,Calm,-,N/A,Rain,Light Rain,0,2013-08-17 14:15:00
10:35 AM,75.2,75.2,100,30.08,10.0,Calm,Calm,-,N/A,,Light Drizzle,0,2013-08-17 14:35:00
10:55 AM,77.0,75.2,94,30.09,10.0,Calm,Calm,-,N/A,Rain,Rain,0,2013-08-17 14:55:00
11:15 AM,77.0,75.2,94,30.09,10.0,ESE,3.5,-,N/A,Rain,Light Rain,110,2013-08-17 15:15:00
11:35 AM,77.0,75.2,94,30.10,10.0,ESE,3.5,-,N/A,,Light Drizzle,110,2013-08-17 15:35:00
11:55 AM,78.8,77.0,94,30.10,10.0,SE,3.5,-,N/A,,Scattered Clouds,130,2013-08-17 15:55:00
12:15 PM,78.8,75.2,89,30.10,10.0,SE,4.6,-,N/A,,Scattered Clouds,140,2013-08-17 16:15:00
12:35 PM,80.6,75.2,84,30.09,10.0,SSE,3.5,-,N/A,,Scattered Clouds,160,2013-08-17 16:35:00
12:55 PM,80.6,75.2,84,30.09,10.0,SE,5.8,-,N/A,,Scattered Clouds,140,2013-08-17 16:55:00
1:15 PM,80.6,75.2,84,30.08,10.0,SE,4.6,-,N/A,,Scattered Clouds,130,2013-08-17 17:15:00
1:35 PM,80.6,75.2,84,30.08,10.0,ESE,5.8,-,N/A,,Scattered Clouds,120,2013-08-17 17:35:00
1:55 PM,82.4,75.2,79,30.08,10.0,Calm,Calm,-,N/A,,Clear,0,2013-08-17 17:55:00
2:15 PM,82.4,75.2,79,30.07,10.0,SSE,5.8,-,N/A,,Clear,160,2013-08-17 18:15:00
2:35 PM,82.4,73.4,74,30.07,10.0,SE,3.5,-,N/A,,Scattered Clouds,130,2013-08-17 18:35:00
2:55 PM,84.2,73.4,70,30.07,10.0,SE,3.5,-,N/A,,Clear,130,2013-08-17 18:55:00
3:15 PM,84.2,75.2,74,30.06,10.0,ESE,4.6,-,N/A,,Clear,110,2013-08-17 19:15:00
3:35 PM,84.2,75.2,74,30.05,10.0,SE,3.5,-,N/A,,Clear,140,2013-08-17 19:35:00
3:55 PM,84.2,75.2,74,30.05,10.0,Calm,Calm,-,N/A,,Clear,0,2013-08-17 19:55:00
4:15 PM,86.0,75.2,70,30.04,10.0,ESE,3.5,-,N/A,,Clear,110,2013-08-17 20:15:00
4:35 PM,86.0,77.0,74,30.03,10.0,East,4.6,-,N/A,,Scattered Clouds,90,2013-08-17 20:35:00
4:55 PM,86.0,77.0,74,30.03,10.0,East,4.6,-,N/A,,Clear,100,2013-08-17 20:55:00
5:15 PM,86.0,77.0,74,30.03,10.0,East,5.8,-,N/A,,Clear,80,2013-08-17 21:15:00
5:35 PM,86.0,75.2,70,30.03,10.0,East,4.6,-,N/A,,Scattered Clouds,100,2013-08-17 21:35:00
5:55 PM,86.0,77.0,74,30.04,10.0,Calm,Calm,-,N/A,,Scattered Clouds,0,2013-08-17 21:55:00
6:15 PM,82.4,77.0,84,30.04,10.0,Calm,Calm,-,N/A,Thunderstorm,Thunderstorm,0,2013-08-17 22:15:00
6:35 PM,82.4,78.8,89,30.05,10.0,Calm,Calm,-,N/A,Rain-Thunderstorm,Light Thunderstorms and Rain,0,2013-08-17 22:35:00
7:55 PM,71.6,71.6,100,30.11,2.0,NW,8.1,-,N/A,Rain-Thunderstorm,Light Thunderstorms and Rain,310,2013-08-17 23:55:00
8:15 PM,71.6,71.6,100,30.12,3.0,Calm,Calm,-,N/A,Rain-Thunderstorm,Light Thunderstorms and Rain,0,2013-08-18 00:15:00
8:35 PM,71.6,71.6,100,30.10,10.0,Calm,Calm,-,N/A,Rain,Light Rain,0,2013-08-18 00:35:00
8:55 PM,71.6,71.6,100,30.11,10.0,East,4.6,-,N/A,,Scattered Clouds,100,2013-08-18 00:55:00
9:15 PM,71.6,71.6,100,30.13,10.0,ESE,3.5,-,N/A,,Clear,120,2013-08-18 01:15:00
9:35 PM,71.6,71.6,100,30.13,10.0,Calm,Calm,-,N/A,,Scattered Clouds,0,2013-08-18 01:35:00
9:55 PM,71.6,71.6,100,30.13,10.0,Calm,Calm,-,N/A,Rain,Light Rain,0,2013-08-18 01:55:00
10:15 PM,71.6,71.6,100,30.14,10.0,SE,4.6,-,N/A,Rain,Light Rain,130,2013-08-18 02:15:00
10:35 PM,71.6,71.6,100,30.14,10.0,SE,4.6,-,N/A,,Mostly Cloudy,140,2013-08-18 02:35:00
10:55 PM,71.6,71.6,100,30.13,10.0,SSE,4.6,-,N/A,,Scattered Clouds,150,2013-08-18 02:55:00
11:15 PM,71.6,71.6,100,30.13,10.0,SSE,6.9,-,N/A,,Scattered Clouds,150,2013-08-18 03:15:00
11:35 PM,71.6,71.6,100,30.14,10.0,SSE,9.2,-,N/A,,Clear,160,2013-08-18 03:35:00
11:55 PM,71.6,71.6,100,30.13,10.0,SE,3.5,-,N/A,,Clear,140,2013-08-18 03:55:00